#timestamp,LO_Frequency,Hit,StdDev 
1573930815.9,286046999.8,N
1573930835.7,286047001.9,N
1573930855.6,286046999.8,N
1573930875.4,286047002.4,N
1573930895.2,286047001.5,N
1573930915.1,286047002.2,N
1573930916.0,286047002.2,N
1573930935.8,286047004.3,Y
1573930955.7,286047001.7,P
1573930975.5,286047004.4,P
1573930995.3,286047001.6,N
1573931015.2,286047003.1,N
1573931035.0,286047005.5,Y
1573931035.9,286047005.5,P
1573931055.8,286047003.9,N
1573931075.6,286047003.3,N
1573931095.4,286047003.6,Y
1573931115.3,286046998.3,P
1573931135.1,286047000.3,N
1573931155.9,286047002.5,N
1573931175.7,286047000.5,N
1573931195.5,286047000.6,N
1573931215.4,286047001.1,N
1573931235.2,286047000.6,N
1573931255.0,286047011.9,Y
1573931255.9,286047000.4,P
1573931275.8,286046998.1,P
1573931295.6,286047000.9,N
1573931315.5,286047000.9,N
1573931335.3,286047001.2,N
1573931355.1,286046998.4,N
1573931375.9,286046999.0,N
1573931395.7,286046998.7,N
1573931415.6,286047002.8,N
1573931435.4,286047000.7,N
1573931455.2,286046999.3,N
1573931475.1,286046997.2,N
1573931476.0,286046997.2,N
1573931495.8,286046999.6,N
1573931515.6,286046998.0,N
1573931535.5,286046996.0,N
1573931555.3,286046996.3,N
1573931575.2,286046994.9,N
1573931595.9,286046997.9,N
1573931615.7,286046998.0,N
1573931635.6,286046997.7,N
1573931655.4,286046997.0,N
1573931675.3,286046996.5,N
1573931695.1,286046997.1,N
1573931696.0,286046997.1,N
1573931715.8,286046997.4,N
1573931735.7,286046996.9,N
1573931755.5,286046996.7,N
1573931775.3,286046995.3,N
1573931795.2,286046997.5,N
1573931815.0,286046997.2,N
1573931815.9,286046997.2,N
1573931835.8,286046995.7,N
1573931855.6,286046995.7,N
1573931875.4,286046995.1,N
1573931895.3,286046993.7,Y
1573931915.1,286046997.1,P
1573931935.8,286046994.9,P
1573931955.7,286046999.6,N
1573931975.5,286046998.6,N
1573931995.4,286046998.6,N
1573932015.2,286047001.2,N
1573932035.0,286046998.1,N
1573932035.9,286046998.1,N
1573932055.8,286047000.6,N
1573932075.6,286046998.5,N
1573932095.4,286047002.8,N
1573932115.3,286047000.9,N
1573932135.1,286047001.5,N
1573932155.9,286047001.8,N
1573932175.7,286047002.2,N
1573932195.5,286047004.4,N
1573932215.4,286046999.9,N
1573932235.2,286047000.3,N
1573932255.0,286047001.2,N
1573932255.9,286047001.2,N
1573932275.8,286046998.9,N
1573932295.6,286046999.3,N
1573932315.5,286047000.8,N
1573932335.3,286047001.0,N
1573932355.1,286046999.3,N
1573932375.9,286046997.7,N
1573932395.7,286046997.0,N
1573932415.5,286046999.1,N
1573932435.4,286046997.1,N
1573932455.2,286046999.3,N
1573932475.0,286046996.9,N
1573932476.0,286046996.9,N
1573932495.8,286046999.4,N
1573932515.6,286046999.6,N
1573932535.5,286046994.9,N
1573932555.3,286046996.8,N
1573932575.1,286046997.7,N
1573932595.9,286046998.8,N
1573932615.7,286046999.0,N
1573932635.5,286046996.9,N
1573932655.4,286046997.1,N
1573932675.2,286046997.3,N
1573932695.1,286046995.5,N
1573932696.0,286046995.5,N
1573932715.8,286046995.4,N
1573932735.6,286046995.7,N
1573932755.5,286046996.1,N
1573932775.3,286046995.4,N
1573932795.2,286046993.7,Y
1573932815.9,286046998.9,P
1573932835.7,286046998.4,P
1573932855.6,286046999.2,N
1573932875.4,286046998.6,N
1573932895.2,286046999.0,N
1573932915.1,286047001.2,N
1573932916.0,286047001.2,N
1573932935.8,286047001.8,N
1573932955.7,286047002.6,N
1573932975.5,286047002.3,N
1573932995.3,286047002.2,N
1573933015.2,286046999.9,N
1573933035.9,286047001.0,N
1573933055.7,286047000.8,N
1573933075.6,286047000.0,N
1573933095.4,286047002.3,N
1573933115.2,286047002.8,N
1573933135.1,286046999.9,N
1573933136.0,286046999.9,N
1573933155.8,286047000.3,N
1573933175.7,286046998.2,N
1573933195.5,286046998.8,N
1573933215.3,286046996.9,N
1573933235.2,286046996.8,N
1573933255.0,286046996.6,N
1573933255.9,286046996.6,N
1573933275.8,286046999.1,N
1573933295.6,286046998.3,N
1573933315.4,286046996.7,N
1573933335.3,286046996.7,N
1573933355.1,286046996.9,N
1573933375.8,286046997.6,N
1573933395.7,286046997.1,N
1573933415.5,286046996.6,N
1573933435.3,286046999.6,N
1573933455.2,286046996.7,N
1573933475.0,286046998.4,N
1573933475.9,286046998.4,N
1573933495.8,286047000.9,N
1573933515.6,286047001.1,N
1573933535.4,286047001.2,N
1573933555.3,286046998.4,N
1573933575.1,286046998.1,N
1573933595.9,286046999.5,N
1573933615.7,286046997.6,N
1573933635.5,286046997.3,N
1573933655.4,286046997.5,N
1573933675.2,286046995.1,Y
1573933695.0,286046997.3,P
1573933695.9,286046997.3,P
1573933715.8,286046994.9,P
1573933735.6,286046997.8,N
1573933755.5,286046997.9,N
1573933775.3,286046997.0,N
1573933795.1,286046997.2,N
1573933815.9,286046996.9,Y
1573933835.7,286047000.3,P
1573933855.6,286046999.9,N
1573933875.4,286047000.9,N
1573933895.2,286047000.4,N
1573933915.1,286047000.2,N
1573933916.0,286047000.2,N
1573933935.8,286047000.6,N
1573933955.6,286047000.8,N
1573933975.5,286047000.0,N
1573933995.3,286046998.7,N
1573934015.2,286047000.5,N
1573934035.9,286046998.4,N
1573934055.7,286047000.6,N
1573934075.6,286047000.2,N
1573934095.4,286047002.3,N
1573934115.2,286047002.8,N
1573934135.1,286046999.9,N
1573934136.0,286046999.9,N
1573934155.8,286047000.5,N
1573934175.6,286047000.1,N
1573934195.5,286046999.9,N
1573934215.3,286047001.0,N
1573934235.2,286047000.6,N
1573934255.9,286047000.4,N
1573934275.7,286047000.4,N
1573934295.6,286047000.9,N
1573934315.4,286046999.9,N
1573934335.2,286047000.2,N
1573934355.1,286047002.2,N
1573934356.0,286047002.2,N
1573934375.8,286047002.1,N
1573934395.7,286047002.4,N
